Change the Weather History Date:

Sunday, June 1, 2014

  Actual Average Record
Temperature  
Mean Temperature 64 °F -  
Max Temperature 68 °F 64 °F 80 °F (1997)
Min Temperature 60 °F 40 °F 33 °F (2003)
Degree Days  
Heating Degree Days 1    
Growing Degree Days 14 (Base 50)    
Moisture  
Dew Point 62 °F    
Average Humidity 94    
Maximum Humidity 100    
Minimum Humidity 88    
Precipitation  
Precipitation 0.90 in - - ()
Sea Level Pressure  
Sea Level Pressure 29.80 in    
Wind  
Wind Speed 4 mph (East)    
Max Wind Speed 8 mph    
Max Gust Speed 9 mph    
Visibility 9 miles    
Events Rain    
Averages and records for this station are not official NWS values.
T = Trace of Precipitation, MM = Missing Value Source: NWS Daily Summary

Daily Weather History Graph

Daily Weather History Graph

Search for Another Location

Airport or City:

Trip Planner

Search our weather history database for the weather conditions in past years. The results will help you decide how hot, cold, wet, or windy it might be!

Date:

Astronomy

Jun. 01, 2014 Rise Set
Actual Time 5:12 AM CDT 8:58 PM CDT
Civil Twilight 4:33 AM CDT 9:37 PM CDT
Nautical Twilight 3:39 AM CDT 10:31 PM CDT
Astronomical Twilight 2:22 AM CDT 11:50 PM CDT
Moon 8:53 AM CDT (6/1) 11:42 PM CDT (6/1)
Length of Visible Light 17h 04m
Length of Day
15h 45m
Waxing Crescent, 14% of the Moon is Illuminated
Jun 1
Waxing Crescent
Jun 5
First Quarter
Jun 12
Full
Jun 19
Last Quarter
Jun 27
New

Hourly Weather History & Observations

Time (CDT) Temp. Dew Point Humidity Pressure Visibility Wind Dir Wind Speed Gust Speed Precip Events Conditions
12:12 AM 62.6 °F 62.6 °F 100% 29.93 in 10.0 mi SSE 3.5 mph - 0.01 in Rain Light Rain
12:33 AM 62.6 °F 62.6 °F 100% 29.92 in 10.0 mi SE 4.6 mph - 0.03 in Rain Rain
12:53 AM 62.6 °F 60.8 °F 94% 29.91 in 10.0 mi SE 5.8 mph - 0.05 in Rain Light Rain
1:12 AM 62.6 °F 60.8 °F 94% 29.89 in 10.0 mi East 5.8 mph - 0.01 in Rain Rain
1:33 AM 62.6 °F 60.8 °F 94% 29.88 in 5.0 mi ESE 4.6 mph - 0.04 in Rain Rain
1:53 AM 60.8 °F 60.8 °F 100% 29.88 in 10.0 mi SE 5.8 mph - 0.08 in Rain Light Rain
2:13 AM 60.8 °F 59.0 °F 94% 29.87 in 10.0 mi SSE 6.9 mph - N/A   Light Drizzle
2:33 AM 60.8 °F 59.0 °F 94% 29.87 in 10.0 mi South 5.8 mph 9.2 mph N/A   Overcast
2:53 AM 60.8 °F 59.0 °F 94% 29.86 in 10.0 mi South 5.8 mph - N/A Rain Light Rain
3:13 AM 60.8 °F 59.0 °F 94% 29.86 in 10.0 mi South 5.8 mph - N/A Rain Light Rain
3:33 AM 60.8 °F 59.0 °F 94% 29.86 in 10.0 mi South 4.6 mph - N/A   Overcast
3:53 AM 60.8 °F 59.0 °F 94% 29.86 in 10.0 mi South 5.8 mph - N/A   Drizzle
4:13 AM 60.8 °F 59.0 °F 94% 29.85 in 7.0 mi South 3.5 mph - 0.01 in   Drizzle
4:33 AM 60.8 °F 59.0 °F 94% 29.84 in 10.0 mi South 4.6 mph - 0.01 in   Drizzle
4:53 AM 60.8 °F 59.0 °F 94% 29.84 in 7.0 mi Calm Calm - 0.03 in Rain Rain
5:13 AM 60.8 °F 59.0 °F 94% 29.83 in 10.0 mi SSE 4.6 mph - 0.03 in Rain Light Rain
5:33 AM 60.8 °F 59.0 °F 94% 29.83 in 7.0 mi SSE 5.8 mph - 0.06 in Rain Heavy Rain
5:53 AM 60.8 °F 59.0 °F 94% 29.82 in 4.0 mi SSE 3.5 mph - 0.10 in Rain Rain
6:13 AM 60.8 °F 59.0 °F 94% 29.83 in 7.0 mi Calm Calm - 0.01 in   Drizzle
6:33 AM 60.8 °F 59.0 °F 94% 29.83 in 5.0 mi Calm Calm - 0.04 in Rain Rain
6:52 AM 60.8 °F 60.8 °F 100% 29.82 in 10.0 mi Calm Calm - 0.06 in Rain Light Rain
7:13 AM 60.8 °F 59.0 °F 94% 29.82 in 5.0 mi Calm Calm - N/A   Drizzle
7:33 AM 60.8 °F 59.0 °F 94% 29.82 in 7.0 mi Calm Calm - 0.01 in   Light Drizzle
7:52 AM 60.8 °F 59.0 °F 94% 29.81 in 3.0 mi Calm Calm - 0.03 in Rain Rain
8:13 AM 60.8 °F 59.0 °F 94% 29.81 in 2.5 mi Calm Calm - 0.01 in Rain Light Rain
8:33 AM 60.8 °F 60.8 °F 100% 29.80 in 5.0 mi Calm Calm - 0.01 in   Light Drizzle
8:53 AM 62.6 °F 60.8 °F 94% 29.80 in 10.0 mi Calm Calm - N/A   Overcast
9:13 AM 62.6 °F 60.8 °F 94% 29.80 in 10.0 mi Calm Calm - N/A   Overcast
9:32 AM 62.6 °F 62.6 °F 100% 29.79 in 10.0 mi Calm Calm - N/A   Overcast
9:53 AM 62.6 °F 60.8 °F 94% 29.79 in 7.0 mi Calm Calm - N/A   Overcast
10:13 AM 64.4 °F 62.6 °F 94% 29.80 in 10.0 mi Calm Calm - N/A   Overcast
10:32 AM 64.4 °F 62.6 °F 94% 29.80 in 10.0 mi Calm Calm - N/A   Overcast
10:53 AM 64.4 °F 62.6 °F 94% 29.80 in 10.0 mi Calm Calm - N/A   Overcast
11:13 AM 64.4 °F 62.6 °F 94% 29.80 in 7.0 mi Calm Calm - N/A   Overcast
11:32 AM 66.2 °F 64.4 °F 94% 29.80 in 10.0 mi Calm Calm - N/A   Overcast
11:53 AM 66.2 °F 64.4 °F 94% 29.80 in 10.0 mi Calm Calm - N/A   Overcast
12:13 PM 66.2 °F 64.4 °F 94% 29.80 in 5.0 mi Calm Calm - N/A Rain Light Rain
12:32 PM 68.0 °F 64.4 °F 88% 29.80 in 10.0 mi Calm Calm - N/A   Overcast
12:53 PM 68.0 °F 64.4 °F 88% 29.80 in 10.0 mi SW 3.5 mph - N/A   Overcast
1:13 PM 66.2 °F 64.4 °F 94% 29.80 in 7.0 mi WSW 3.5 mph - N/A Rain Rain
1:32 PM 66.2 °F 64.4 °F 94% 29.79 in 10.0 mi NNE 3.5 mph - 0.02 in   Overcast
1:53 PM 66.2 °F 64.4 °F 94% 29.79 in 10.0 mi NNE 3.5 mph - 0.02 in   Mostly Cloudy
2:13 PM 64.4 °F 62.6 °F 94% 29.78 in 10.0 mi Calm Calm - N/A Rain Light Rain
2:33 PM 64.4 °F 62.6 °F 94% 29.78 in 7.0 mi Calm Calm - 0.32 in Rain Rain
2:53 PM 66.2 °F 64.4 °F 94% 29.78 in 10.0 mi NE 5.8 mph - 0.32 in   Overcast
3:13 PM 66.2 °F 64.4 °F 94% 29.77 in 10.0 mi NNE 4.6 mph - N/A   Overcast
3:33 PM 66.2 °F 62.6 °F 88% 29.76 in 10.0 mi NNE 5.8 mph - N/A   Drizzle
3:53 PM 66.2 °F 62.6 °F 88% 29.75 in 10.0 mi NE 5.8 mph - N/A   Overcast
4:13 PM 64.4 °F 62.6 °F 94% 29.76 in 10.0 mi NNE 3.5 mph - N/A Rain Rain
4:33 PM 64.4 °F 62.6 °F 94% 29.75 in 10.0 mi NE 6.9 mph - N/A   Drizzle
4:53 PM 64.4 °F 62.6 °F 94% 29.77 in 10.0 mi NE 6.9 mph - N/A   Drizzle
5:13 PM 64.4 °F 62.6 °F 94% 29.76 in 10.0 mi NE 5.8 mph - 0.01 in Rain Light Rain
5:33 PM 64.4 °F 62.6 °F 94% 29.76 in 10.0 mi NE 6.9 mph - 0.03 in Rain Light Rain
5:53 PM 64.4 °F 62.6 °F 94% 29.76 in 10.0 mi NE 5.8 mph - 0.03 in Rain Light Rain
6:12 PM 64.4 °F 62.6 °F 94% 29.76 in 10.0 mi NE 5.8 mph - N/A   Overcast
6:33 PM 64.4 °F 62.6 °F 94% 29.75 in 10.0 mi NE 4.6 mph - N/A   Overcast
6:53 PM 64.4 °F 62.6 °F 94% 29.76 in 10.0 mi ENE 5.8 mph - N/A   Overcast
7:12 PM 64.4 °F 62.6 °F 94% 29.77 in 10.0 mi ENE 5.8 mph - N/A   Overcast
7:33 PM 64.4 °F 62.6 °F 94% 29.78 in 10.0 mi ENE 5.8 mph - N/A   Overcast
7:53 PM 64.4 °F 62.6 °F 94% 29.79 in 10.0 mi NE 4.6 mph - N/A   Overcast
8:12 PM 64.4 °F 62.6 °F 94% 29.79 in 10.0 mi NE 3.5 mph - N/A   Overcast
8:33 PM 64.4 °F 62.6 °F 94% 29.78 in 10.0 mi NNE 4.6 mph - N/A   Overcast
8:53 PM 64.4 °F 62.6 °F 94% 29.77 in 10.0 mi NE 3.5 mph - N/A Rain Rain
9:13 PM 62.6 °F 60.8 °F 94% 29.77 in 5.0 mi ENE 8.1 mph - 0.04 in Rain Heavy Rain
9:32 PM 62.6 °F 60.8 °F 94% 29.76 in 10.0 mi NE 5.8 mph - 0.17 in Rain Heavy Rain
9:53 PM 62.6 °F 60.8 °F 94% 29.76 in 10.0 mi ENE 4.6 mph - N/A   Light Drizzle
10:13 PM 62.6 °F 60.8 °F 94% 29.76 in 10.0 mi ENE 4.6 mph - N/A   Overcast
10:32 PM 62.6 °F 60.8 °F 94% 29.77 in 10.0 mi East 5.8 mph - N/A   Overcast
10:53 PM 62.6 °F 60.8 °F 94% 29.77 in 10.0 mi East 4.6 mph - N/A   Overcast
11:12 PM 62.6 °F 60.8 °F 94% 29.77 in 10.0 mi East 4.6 mph - N/A Rain Rain
11:33 PM 62.6 °F 60.8 °F 94% 29.76 in 10.0 mi ENE 3.5 mph - N/A   Overcast
11:53 PM 62.6 °F 60.8 °F 94% 29.76 in 10.0 mi ENE 3.5 mph - N/A   Overcast